Time,TemperatureF,DewpointF,PressureIn,WindDirection,WindDirectionDegrees,WindSpeedMPH,WindSpeedGustMPH,Humidity,HourlyPrecipIn,Conditions,Clouds,dailyrainin,SoftwareType,DateUTC
2013-01-05 00:00:00,33.4,24.0,29.90,SW,234,6.0,12.0,68,0.00,,CLR,0.00,VWS V14.00,2013-01-05 05:00:00,
2013-01-05 00:02:00,33.4,24.0,29.90,SW,234,0.0,2.0,68,0.00,,CLR,0.00,VWS V14.00,2013-01-05 05:02:00,
2013-01-05 00:07:00,33.3,23.9,29.90,SW,234,0.0,4.0,68,0.00,,CLR,0.00,VWS V14.00,2013-01-05 05:07:00,
2013-01-05 00:12:00,33.3,23.9,29.90,SW,234,0.0,4.0,68,0.00,,CLR,0.00,VWS V14.00,2013-01-05 05:12:00,
2013-01-05 00:17:00,33.3,23.9,29.90,SW,234,0.0,4.0,68,0.00,,CLR,0.00,VWS V14.00,2013-01-05 05:17:00,
2013-01-05 00:22:00,33.2,23.8,29.90,SW,234,2.0,4.0,68,0.00,,CLR,0.00,VWS V14.00,2013-01-05 05:22:00,
2013-01-05 00:27:00,33.1,23.7,29.90,SW,234,0.0,4.0,68,0.00,,CLR,0.00,VWS V14.00,2013-01-05 05:27:00,
2013-01-05 00:32:00,33.0,23.6,29.90,SW,234,1.0,5.0,68,0.00,,CLR,0.00,VWS V14.00,2013-01-05 05:32:00,
2013-01-05 00:37:00,33.0,23.6,29.91,SW,234,0.0,5.0,68,0.00,,CLR,0.00,VWS V14.00,2013-01-05 05:37:00,
2013-01-05 00:42:00,32.9,23.5,29.91,SW,234,0.0,5.0,68,0.00,,CLR,0.00,VWS V14.00,2013-01-05 05:42:00,
2013-01-05 00:47:00,32.8,23.1,29.91,SW,234,0.0,5.0,67,0.00,,CLR,0.00,VWS V14.00,2013-01-05 05:47:00,
2013-01-05 00:52:00,32.6,22.9,29.91,SW,234,0.0,5.0,67,0.00,,CLR,0.00,VWS V14.00,2013-01-05 05:52:00,
2013-01-05 00:57:00,32.5,23.1,29.91,SW,234,0.0,5.0,68,0.00,,CLR,0.00,VWS V14.00,2013-01-05 05:57:00,
2013-01-05 01:02:00,32.4,23.0,29.91,SW,234,0.0,0.0,68,0.00,,CLR,0.00,VWS V14.00,2013-01-05 06:02:00,
2013-01-05 01:07:00,32.4,23.0,29.92,SW,234,1.0,3.0,68,0.00,,CLR,0.00,VWS V14.00,2013-01-05 06:07:00,
2013-01-05 01:12:00,32.4,23.0,29.92,SW,234,0.0,3.0,68,0.00,,CLR,0.00,VWS V14.00,2013-01-05 06:12:00,
2013-01-05 01:17:00,32.4,23.0,29.92,SW,234,0.0,3.0,68,0.00,,CLR,0.00,VWS V14.00,2013-01-05 06:17:00,
2013-01-05 01:22:00,32.3,22.9,29.92,SW,234,0.0,3.0,68,0.00,,CLR,0.00,VWS V14.00,2013-01-05 06:22:00,
2013-01-05 01:27:00,32.2,22.8,29.92,SW,234,0.0,3.0,68,0.00,,CLR,0.00,VWS V14.00,2013-01-05 06:27:00,
2013-01-05 01:32:00,32.1,22.8,29.93,SW,234,0.0,0.0,68,0.00,,CLR,0.00,VWS V14.00,2013-01-05 06:32:00,
2013-01-05 01:37:00,31.9,22.5,29.93,SW,234,0.0,0.0,68,0.00,,CLR,0.00,VWS V14.00,2013-01-05 06:37:00,
2013-01-05 01:42:00,31.7,22.4,29.94,SW,234,0.0,0.0,68,0.00,,CLR,0.00,VWS V14.00,2013-01-05 06:42:00,
2013-01-05 01:47:00,31.7,22.4,29.94,SW,234,0.0,3.0,68,0.00,,CLR,0.00,VWS V14.00,2013-01-05 06:47:00,
2013-01-05 01:52:00,31.8,22.5,29.94,SW,236,6.0,6.0,68,0.00,,CLR,0.00,VWS V14.00,2013-01-05 06:52:00,
2013-01-05 01:57:00,32.0,22.6,29.94,SW,236,0.0,6.0,68,0.00,,CLR,0.00,VWS V14.00,2013-01-05 06:57:00,
2013-01-05 02:02:00,32.0,22.3,29.94,SW,236,0.0,1.0,67,0.00,,CLR,0.00,VWS V14.00,2013-01-05 07:02:00,
2013-01-05 02:07:00,32.2,22.5,29.95,SW,236,0.0,4.0,67,0.00,,CLR,0.00,VWS V14.00,2013-01-05 07:07:00,
2013-01-05 02:12:00,32.2,22.5,29.95,SW,236,0.0,4.0,67,0.00,,CLR,0.00,VWS V14.00,2013-01-05 07:12:00,
2013-01-05 02:17:00,32.3,22.6,29.95,SW,236,0.0,4.0,67,0.00,,CLR,0.00,VWS V14.00,2013-01-05 07:17:00,
2013-01-05 02:22:00,32.4,22.7,29.95,WSW,237,0.0,4.0,67,0.00,,CLR,0.00,VWS V14.00,2013-01-05 07:22:00,
2013-01-05 02:27:00,32.4,22.7,29.96,WSW,237,0.0,4.0,67,0.00,,CLR,0.00,VWS V14.00,2013-01-05 07:27:00,
2013-01-05 02:32:00,32.3,22.6,29.96,WSW,238,0.0,0.0,67,0.00,,CLR,0.00,VWS V14.00,2013-01-05 07:32:00,
2013-01-05 02:37:00,32.0,22.3,29.96,WSW,238,0.0,0.0,67,0.00,,CLR,0.00,VWS V14.00,2013-01-05 07:37:00,
2013-01-05 02:42:00,31.9,22.2,29.96,WSW,238,0.0,0.0,67,0.00,,CLR,0.00,VWS V14.00,2013-01-05 07:42:00,
2013-01-05 02:47:00,31.8,22.5,29.97,WSW,237,0.0,0.0,68,0.00,,CLR,0.00,VWS V14.00,2013-01-05 07:47:00,
2013-01-05 02:52:00,31.6,22.3,29.97,WSW,237,0.0,0.0,68,0.00,,CLR,0.00,VWS V14.00,2013-01-05 07:52:00,
2013-01-05 02:57:00,31.5,22.2,29.97,WSW,238,0.0,1.0,68,0.00,,CLR,0.00,VWS V14.00,2013-01-05 07:57:00,
2013-01-05 03:02:00,31.3,22.0,29.97,WSW,238,0.0,0.0,68,0.00,,CLR,0.00,VWS V14.00,2013-01-05 08:02:00,
2013-01-05 03:07:00,31.3,22.3,29.97,WSW,238,0.0,1.0,69,0.00,,CLR,0.00,VWS V14.00,2013-01-05 08:07:00,
2013-01-05 03:12:00,31.1,22.1,29.98,WSW,238,0.0,1.0,69,0.00,,CLR,0.00,VWS V14.00,2013-01-05 08:12:00,
2013-01-05 03:17:00,31.0,22.0,29.98,WSW,238,0.0,1.0,69,0.00,,CLR,0.00,VWS V14.00,2013-01-05 08:17:00,
2013-01-05 03:22:00,30.9,21.9,29.98,WSW,237,0.0,1.0,69,0.00,,CLR,0.00,VWS V14.00,2013-01-05 08:22:00,
2013-01-05 03:27:00,30.9,21.9,29.98,WSW,238,0.0,4.0,69,0.00,,CLR,0.00,VWS V14.00,2013-01-05 08:27:00,
2013-01-05 03:32:00,30.9,21.9,29.98,WSW,238,0.0,0.0,69,0.00,,CLR,0.00,VWS V14.00,2013-01-05 08:32:00,
2013-01-05 03:39:00,31.1,22.5,29.98,SW,231,0.0,9.0,70,0.00,,CLR,0.00,VWS V14.00,2013-01-05 08:39:00,
2013-01-05 03:44:00,31.7,22.7,29.98,SW,230,0.0,9.0,69,0.00,,CLR,0.00,VWS V14.00,2013-01-05 08:44:00,
2013-01-05 03:49:00,31.4,22.1,29.98,WNW,283,5.0,10.0,68,0.00,,CLR,0.00,VWS V14.00,2013-01-05 08:49:00,
2013-01-05 03:54:00,31.8,22.5,29.98,WNW,302,3.0,10.0,68,0.00,,CLR,0.00,VWS V14.00,2013-01-05 08:54:00,
2013-01-05 03:59:00,32.2,22.8,29.98,NW,304,3.0,10.0,68,0.00,,CLR,0.00,VWS V14.00,2013-01-05 08:59:00,
2013-01-05 04:04:00,32.4,23.4,29.99,West,260,10.0,12.0,69,0.00,,CLR,0.00,VWS V14.00,2013-01-05 09:04:00,
2013-01-05 04:09:00,32.7,23.7,29.99,SSW,210,6.0,12.0,69,0.00,,CLR,0.00,VWS V14.00,2013-01-05 09:09:00,
2013-01-05 04:14:00,32.9,23.9,29.99,NW,309,2.0,12.0,69,0.00,,BKN048,0.00,VWS V14.00,2013-01-05 09:14:00,
2013-01-05 04:19:00,33.1,24.0,29.99,SE,140,1.0,12.0,69,0.00,,BKN048,0.00,VWS V14.00,2013-01-05 09:19:00,
2013-01-05 04:24:00,33.4,24.0,29.99,West,273,5.0,12.0,68,0.00,,BKN048,0.00,VWS V14.00,2013-01-05 09:24:00,
2013-01-05 04:28:00,33.5,24.1,29.99,WNW,303,3.0,13.0,68,0.00,,BKN048,0.00,VWS V14.00,2013-01-05 09:28:00,
2013-01-05 04:33:00,33.7,23.9,29.99,WNW,286,6.0,11.0,67,0.00,,BKN048,0.00,VWS V14.00,2013-01-05 09:33:00,
2013-01-05 04:38:00,33.7,23.9,29.99,WNW,299,2.0,11.0,67,0.00,,BKN048,0.00,VWS V14.00,2013-01-05 09:38:00,
2013-01-05 04:43:00,33.7,24.3,29.99,SW,233,3.0,12.0,68,0.00,,BKN048,0.00,VWS V14.00,2013-01-05 09:43:00,
2013-01-05 04:48:00,33.7,24.3,29.99,NNW,336,2.0,12.0,68,0.00,,BKN048,0.00,VWS V14.00,2013-01-05 09:48:00,
2013-01-05 04:53:00,33.8,24.4,29.99,WSW,257,11.0,12.0,68,0.00,,BKN048,0.00,VWS V14.00,2013-01-05 09:53:00,
2013-01-05 04:58:00,33.9,24.5,30.00,West,278,2.0,12.0,68,0.00,,BKN048,0.00,VWS V14.00,2013-01-05 09:58:00,
2013-01-05 05:03:00,33.8,24.7,30.00,West,264,3.0,12.0,69,0.00,,BKN048,0.00,VWS V14.00,2013-01-05 10:03:00,
2013-01-05 05:08:00,33.7,24.6,30.00,WNW,294,2.0,12.0,69,0.00,,BKN048,0.00,VWS V14.00,2013-01-05 10:08:00,
2013-01-05 05:13:00,33.9,24.8,30.01,WNW,294,2.0,13.0,69,0.00,,OVC055,0.00,VWS V14.00,2013-01-05 10:13:00,
2013-01-05 05:18:00,34.2,25.1,30.00,SW,236,3.0,13.0,69,0.00,,OVC055,0.00,VWS V14.00,2013-01-05 10:18:00,
2013-01-05 05:23:00,34.3,25.2,30.01,West,263,5.0,13.0,69,0.00,,OVC055,0.00,VWS V14.00,2013-01-05 10:23:00,
2013-01-05 05:28:00,34.4,25.3,30.01,WSW,257,5.0,13.0,69,0.00,,OVC055,0.00,VWS V14.00,2013-01-05 10:28:00,
2013-01-05 05:33:00,34.5,25.4,30.01,WSW,238,10.0,12.0,69,0.00,,OVC055,0.00,VWS V14.00,2013-01-05 10:33:00,
2013-01-05 05:38:00,34.5,25.4,30.02,West,266,2.0,12.0,69,0.00,,OVC055,0.00,VWS V14.00,2013-01-05 10:38:00,
2013-01-05 05:43:00,34.5,25.4,30.02,WSW,242,14.0,14.0,69,0.00,,OVC055,0.00,VWS V14.00,2013-01-05 10:43:00,
2013-01-05 05:48:00,34.5,25.7,30.02,NNW,336,7.0,14.0,70,0.00,,OVC055,0.00,VWS V14.00,2013-01-05 10:48:00,
2013-01-05 05:53:00,34.5,25.7,30.02,West,272,4.0,14.0,70,0.00,,OVC055,0.00,VWS V14.00,2013-01-05 10:53:00,
2013-01-05 05:58:00,34.6,26.2,30.03,SW,229,1.0,14.0,71,0.00,,OVC055,0.00,VWS V14.00,2013-01-05 10:58:00,
2013-01-05 06:03:00,34.8,26.4,30.04,South,169,2.0,10.0,71,0.00,,OVC055,0.00,VWS V14.00,2013-01-05 11:03:00,
2013-01-05 06:08:00,35.0,26.2,30.04,SW,217,5.0,16.0,70,0.00,,OVC055,0.00,VWS V14.00,2013-01-05 11:08:00,
2013-01-05 06:13:00,35.1,26.3,30.04,NW,320,5.0,16.0,70,0.00,,BKN055,0.00,VWS V14.00,2013-01-05 11:13:00,
2013-01-05 06:18:00,35.3,26.5,30.04,South,178,1.0,16.0,70,0.00,,BKN055,0.00,VWS V14.00,2013-01-05 11:18:00,
2013-01-05 06:23:00,35.3,26.5,30.05,SW,232,6.0,16.0,70,0.00,,BKN055,0.00,VWS V14.00,2013-01-05 11:23:00,
2013-01-05 06:28:00,35.3,26.5,30.05,WNW,298,7.0,16.0,70,0.00,,BKN055,0.00,VWS V14.00,2013-01-05 11:28:00,
2013-01-05 06:33:00,35.3,26.5,30.05,NW,309,4.0,7.0,70,0.00,,BKN055,0.00,VWS V14.00,2013-01-05 11:33:00,
2013-01-05 06:38:00,35.4,26.3,30.05,SW,226,6.0,16.0,69,0.00,,BKN055,0.00,VWS V14.00,2013-01-05 11:38:00,
2013-01-05 06:43:00,35.4,26.3,30.05,SW,236,5.0,16.0,69,0.00,,BKN055,0.00,VWS V14.00,2013-01-05 11:43:00,
2013-01-05 06:48:00,35.3,26.2,30.06,WSW,252,2.0,16.0,69,0.00,,BKN055,0.00,VWS V14.00,2013-01-05 11:48:00,
2013-01-05 06:53:00,35.3,26.5,30.07,West,265,5.0,16.0,70,0.00,,BKN055,0.00,VWS V14.00,2013-01-05 11:53:00,
2013-01-05 06:58:00,35.4,26.6,30.07,WSW,246,4.0,16.0,70,0.00,,BKN055,0.00,VWS V14.00,2013-01-05 11:58:00,
2013-01-05 07:03:00,35.5,26.7,30.08,West,265,6.0,11.0,70,0.00,,BKN055,0.00,VWS V14.00,2013-01-05 12:03:00,
2013-01-05 07:08:00,35.6,26.8,30.08,West,271,10.0,12.0,70,0.00,,BKN055,0.00,VWS V14.00,2013-01-05 12:08:00,
2013-01-05 07:13:00,35.7,26.9,30.09,West,276,5.0,15.0,70,0.00,,OVC050,0.00,VWS V14.00,2013-01-05 12:13:00,
2013-01-05 07:18:00,35.8,27.0,30.09,West,267,7.0,15.0,70,0.00,,OVC050,0.00,VWS V14.00,2013-01-05 12:18:00,
2013-01-05 07:23:00,35.7,26.9,30.09,SSW,192,1.0,15.0,70,0.00,,OVC050,0.00,VWS V14.00,2013-01-05 12:23:00,
2013-01-05 07:28:00,35.6,26.8,30.09,SSE,168,1.0,15.0,70,0.00,,OVC050,0.00,VWS V14.00,2013-01-05 12:28:00,
2013-01-05 07:33:00,35.7,26.9,30.09,West,267,4.0,13.0,70,0.00,,OVC050,0.00,VWS V14.00,2013-01-05 12:33:00,
2013-01-05 07:38:00,35.8,27.0,30.09,SE,129,6.0,16.0,70,0.00,,OVC050,0.00,VWS V14.00,2013-01-05 12:38:00,
2013-01-05 07:43:00,35.8,27.0,30.09,WNW,294,4.0,16.0,70,0.00,,OVC050,0.00,VWS V14.00,2013-01-05 12:43:00,
2013-01-05 07:48:00,35.8,27.0,30.10,SW,218,9.0,16.0,70,0.00,,OVC050,0.00,VWS V14.00,2013-01-05 12:48:00,
2013-01-05 08:00:00,35.9,27.1,30.11,WNW,283,4.0,16.0,70,0.00,,OVC050,0.00,VWS V14.00,2013-01-05 13:00:00,
2013-01-05 08:30:00,36.0,27.2,30.12,WNW,295,4.0,19.0,70,0.00,,OVC050,0.00,VWS V14.00,2013-01-05 13:30:00,
2013-01-05 08:55:00,36.3,27.1,30.14,SW,221,2.0,2.0,69,0.00,,,0.00,VWS V14.00,2013-01-05 13:55:00,
2013-01-05 09:06:00,36.4,26.9,30.14,West,275,5.0,5.0,68,0.00,,,0.00,VWS V14.00,2013-01-05 14:06:00,
2013-01-05 09:11:00,36.4,26.9,30.15,West,271,7.0,11.0,68,0.00,,,0.00,VWS V14.00,2013-01-05 14:11:00,
2013-01-05 09:16:00,36.4,26.9,30.15,WSW,252,2.0,11.0,68,0.00,,OVC050,0.00,VWS V14.00,2013-01-05 14:16:00,
2013-01-05 09:21:00,36.5,26.6,30.15,SSW,209,2.0,11.0,67,0.00,,OVC050,0.00,VWS V14.00,2013-01-05 14:21:00,
2013-01-05 09:26:00,36.5,26.6,30.15,WSW,244,5.0,11.0,67,0.00,,OVC050,0.00,VWS V14.00,2013-01-05 14:26:00,
2013-01-05 09:31:00,36.7,26.8,30.15,WSW,252,3.0,6.0,67,0.00,,OVC050,0.00,VWS V14.00,2013-01-05 14:31:00,
2013-01-05 09:36:00,36.9,27.0,30.15,WNW,284,2.0,10.0,67,0.00,,OVC050,0.00,VWS V14.00,2013-01-05 14:36:00,
2013-01-05 09:41:00,37.1,26.8,30.15,WSW,238,6.0,10.0,66,0.00,,OVC050,0.00,VWS V14.00,2013-01-05 14:41:00,
2013-01-05 09:46:00,37.4,27.1,30.15,WNW,283,4.0,10.0,66,0.00,,OVC050,0.00,VWS V14.00,2013-01-05 14:46:00,
2013-01-05 09:51:00,37.6,26.9,30.15,WNW,297,1.0,11.0,65,0.00,,OVC050,0.00,VWS V14.00,2013-01-05 14:51:00,
2013-01-05 09:56:00,37.9,27.2,30.16,West,276,3.0,11.0,65,0.00,,OVC050,0.00,VWS V14.00,2013-01-05 14:56:00,
2013-01-05 10:01:00,37.9,26.8,30.16,SW,232,3.0,10.0,64,0.00,,OVC050,0.00,VWS V14.00,2013-01-05 15:01:00,
2013-01-05 10:06:00,38.1,27.0,30.16,WSW,241,3.0,10.0,64,0.00,,OVC050,0.00,VWS V14.00,2013-01-05 15:06:00,
2013-01-05 10:11:00,38.3,26.8,30.16,WNW,283,2.0,11.0,63,0.00,,OVC050,0.00,VWS V14.00,2013-01-05 15:11:00,
2013-01-05 10:16:00,38.6,27.1,30.16,West,272,5.0,11.0,63,0.00,,SCT050,0.00,VWS V14.00,2013-01-05 15:16:00,
2013-01-05 10:21:00,38.8,26.9,30.16,NW,309,2.0,11.0,62,0.00,,SCT050,0.00,VWS V14.00,2013-01-05 15:21:00,
2013-01-05 10:26:00,39.0,27.1,30.16,SW,230,6.0,11.0,62,0.00,,SCT050,0.00,VWS V14.00,2013-01-05 15:26:00,
2013-01-05 10:31:00,39.2,26.9,30.16,WSW,257,5.0,5.0,61,0.00,,SCT050,0.00,VWS V14.00,2013-01-05 15:31:00,
2013-01-05 10:36:00,39.5,27.2,30.16,NW,313,1.0,6.0,61,0.00,,SCT050,0.00,VWS V14.00,2013-01-05 15:36:00,
2013-01-05 10:41:00,39.7,26.6,30.16,WNW,295,5.0,7.0,59,0.00,,SCT050,0.00,VWS V14.00,2013-01-05 15:41:00,
2013-01-05 10:46:00,40.0,26.8,30.16,SW,214,2.0,7.0,59,0.00,,SCT050,0.00,VWS V14.00,2013-01-05 15:46:00,
2013-01-05 10:51:00,40.3,26.7,30.16,West,277,2.0,12.0,58,0.00,,SCT050,0.00,VWS V14.00,2013-01-05 15:51:00,
2013-01-05 10:56:00,40.5,27.3,30.16,NNW,342,2.0,12.0,59,0.00,,SCT050,0.00,VWS V14.00,2013-01-05 15:56:00,
2013-01-05 11:01:00,40.6,26.6,30.16,West,261,3.0,5.0,57,0.00,,SCT050,0.00,VWS V14.00,2013-01-05 16:01:00,
2013-01-05 11:06:00,40.7,27.1,30.16,WNW,299,2.0,14.0,58,0.00,,SCT050,0.00,VWS V14.00,2013-01-05 16:06:00,
2013-01-05 11:11:00,40.8,26.8,30.16,NW,309,2.0,14.0,57,0.00,,SCT050,0.00,VWS V14.00,2013-01-05 16:11:00,
2013-01-05 11:16:00,41.3,27.2,30.16,West,275,2.0,14.0,57,0.00,,CLR,0.00,VWS V14.00,2013-01-05 16:16:00,
2013-01-05 11:21:00,41.5,27.0,30.16,NNE,22,0.0,14.0,56,0.00,,CLR,0.00,VWS V14.00,2013-01-05 16:21:00,
2013-01-05 11:26:00,41.4,27.3,30.17,SE,130,3.0,14.0,57,0.00,,CLR,0.00,VWS V14.00,2013-01-05 16:26:00,
2013-01-05 11:31:00,41.4,27.3,30.17,WNW,288,3.0,4.0,57,0.00,,CLR,0.00,VWS V14.00,2013-01-05 16:31:00,
2013-01-05 11:36:00,41.7,27.6,30.16,WNW,296,5.0,5.0,57,0.00,,CLR,0.00,VWS V14.00,2013-01-05 16:36:00,
2013-01-05 11:41:00,41.8,26.8,30.15,NW,311,4.0,9.0,55,0.00,,CLR,0.00,VWS V14.00,2013-01-05 16:41:00,
2013-01-05 11:46:00,41.7,27.2,30.15,SSE,153,3.0,12.0,56,0.00,,CLR,0.00,VWS V14.00,2013-01-05 16:46:00,
2013-01-05 11:51:00,41.8,26.8,30.15,NW,315,4.0,14.0,55,0.00,,CLR,0.00,VWS V14.00,2013-01-05 16:51:00,
2013-01-05 11:56:00,41.9,26.9,30.15,NW,323,3.0,14.0,55,0.00,,CLR,0.00,VWS V14.00,2013-01-05 16:56:00,
2013-01-05 12:01:00,42.2,27.2,30.16,NE,38,12.0,12.0,55,0.00,,CLR,0.00,VWS V14.00,2013-01-05 17:01:00,
2013-01-05 12:06:00,42.2,27.2,30.15,NNE,33,8.0,13.0,55,0.00,,CLR,0.00,VWS V14.00,2013-01-05 17:06:00,
2013-01-05 12:11:00,42.2,27.6,30.15,West,280,4.0,13.0,56,0.00,,CLR,0.00,VWS V14.00,2013-01-05 17:11:00,
2013-01-05 12:16:00,42.2,26.8,30.15,NNE,20,5.0,13.0,54,0.00,,CLR,0.00,VWS V14.00,2013-01-05 17:16:00,
2013-01-05 12:21:00,42.1,27.1,30.15,ESE,109,1.0,13.0,55,0.00,,CLR,0.00,VWS V14.00,2013-01-05 17:21:00,
2013-01-05 12:26:00,42.4,27.0,30.15,NW,317,5.0,13.0,54,0.00,,CLR,0.00,VWS V14.00,2013-01-05 17:26:00,
2013-01-05 12:31:00,42.6,27.1,30.14,WNW,299,2.0,9.0,54,0.00,,CLR,0.00,VWS V14.00,2013-01-05 17:31:00,
2013-01-05 12:36:00,42.7,27.2,30.13,NNW,330,5.0,14.0,54,0.00,,CLR,0.00,VWS V14.00,2013-01-05 17:36:00,
2013-01-05 12:41:00,43.0,27.5,30.14,NNE,14,5.0,14.0,54,0.00,,CLR,0.00,VWS V14.00,2013-01-05 17:41:00,
2013-01-05 12:46:00,43.2,27.2,30.14,WNW,300,5.0,14.0,53,0.00,,CLR,0.00,VWS V14.00,2013-01-05 17:46:00,
2013-01-05 12:51:00,42.8,25.9,30.14,NE,44,13.0,18.0,51,0.00,,CLR,0.00,VWS V14.00,2013-01-05 17:51:00,
2013-01-05 12:56:00,42.6,26.7,30.14,NNE,26,13.0,18.0,53,0.00,,CLR,0.00,VWS V14.00,2013-01-05 17:56:00,
2013-01-05 13:01:00,42.6,26.7,30.15,NNE,32,6.0,12.0,53,0.00,,CLR,0.00,VWS V14.00,2013-01-05 18:01:00,
2013-01-05 13:06:00,42.6,26.2,30.14,WNW,296,7.0,14.0,52,0.00,,CLR,0.00,VWS V14.00,2013-01-05 18:06:00,
2013-01-05 13:11:00,42.7,26.8,30.14,NE,39,3.0,14.0,53,0.00,,CLR,0.00,VWS V14.00,2013-01-05 18:11:00,
2013-01-05 13:16:00,42.8,26.4,30.14,NE,44,15.0,15.0,52,0.00,,CLR,0.00,VWS V14.00,2013-01-05 18:16:00,
2013-01-05 13:21:00,42.6,26.2,30.14,NNW,335,2.0,15.0,52,0.00,,CLR,0.00,VWS V14.00,2013-01-05 18:21:00,
2013-01-05 13:26:00,43.3,27.8,30.14,NW,315,2.0,15.0,54,0.00,,CLR,0.00,VWS V14.00,2013-01-05 18:26:00,
2013-01-05 13:31:00,43.2,26.3,30.14,NNE,15,5.0,6.0,51,0.00,,CLR,0.00,VWS V14.00,2013-01-05 18:31:00,
2013-01-05 13:36:00,43.2,26.3,30.14,NNW,342,7.0,10.0,51,0.00,,CLR,0.00,VWS V14.00,2013-01-05 18:36:00,
2013-01-05 13:41:00,43.2,26.8,30.14,NE,51,9.0,15.0,52,0.00,,CLR,0.00,VWS V14.00,2013-01-05 18:41:00,
2013-01-05 13:46:00,42.9,26.0,30.14,NW,309,5.0,15.0,51,0.00,,CLR,0.00,VWS V14.00,2013-01-05 18:46:00,
2013-01-05 13:51:00,42.8,26.4,30.14,NE,38,2.0,15.0,52,0.00,,CLR,0.00,VWS V14.00,2013-01-05 18:51:00,
2013-01-05 13:56:00,43.0,26.6,30.15,East,94,2.0,15.0,52,0.00,,CLR,0.00,VWS V14.00,2013-01-05 18:56:00,
2013-01-05 14:01:00,43.0,26.6,30.15,NW,304,1.0,3.0,52,0.00,,CLR,0.00,VWS V14.00,2013-01-05 19:01:00,
2013-01-05 14:06:00,43.4,27.0,30.15,SSE,160,0.0,5.0,52,0.00,,CLR,0.00,VWS V14.00,2013-01-05 19:06:00,
2013-01-05 14:11:00,44.2,27.7,30.15,North,5,3.0,5.0,52,0.00,,CLR,0.00,VWS V14.00,2013-01-05 19:11:00,
2013-01-05 14:16:00,44.1,26.7,30.15,NNW,338,3.0,5.0,50,0.00,,CLR,0.00,VWS V14.00,2013-01-05 19:16:00,
2013-01-05 14:21:00,44.5,28.0,30.15,NE,52,4.0,6.0,52,0.00,,CLR,0.00,VWS V14.00,2013-01-05 19:21:00,
2013-01-05 14:26:00,44.2,26.3,30.16,NNE,29,7.0,13.0,49,0.00,,CLR,0.00,VWS V14.00,2013-01-05 19:26:00,
2013-01-05 14:31:00,44.1,27.1,30.15,NW,306,3.0,4.0,51,0.00,,CLR,0.00,VWS V14.00,2013-01-05 19:31:00,
2013-01-05 14:36:00,43.7,26.3,30.16,ENE,58,4.0,12.0,50,0.00,,CLR,0.00,VWS V14.00,2013-01-05 19:36:00,
2013-01-05 14:41:00,43.7,27.2,30.16,West,273,2.0,12.0,52,0.00,,CLR,0.00,VWS V14.00,2013-01-05 19:41:00,
2013-01-05 14:46:00,44.3,27.3,30.16,NNW,327,3.0,12.0,51,0.00,,CLR,0.00,VWS V14.00,2013-01-05 19:46:00,
2013-01-05 14:51:00,44.4,26.9,30.16,West,264,3.0,12.0,50,0.00,,CLR,0.00,VWS V14.00,2013-01-05 19:51:00,
2013-01-05 14:56:00,44.7,26.7,30.16,WSW,245,4.0,12.0,49,0.00,,CLR,0.00,VWS V14.00,2013-01-05 19:56:00,
2013-01-05 15:01:00,44.5,26.0,30.16,WNW,300,4.0,4.0,48,0.00,,CLR,0.00,VWS V14.00,2013-01-05 20:01:00,
2013-01-05 15:06:00,44.6,26.1,30.16,NW,321,2.0,5.0,48,0.00,,CLR,0.00,VWS V14.00,2013-01-05 20:06:00,
2013-01-05 15:11:00,44.8,27.3,30.17,WNW,286,0.0,5.0,50,0.00,,CLR,0.00,VWS V14.00,2013-01-05 20:11:00,
2013-01-05 15:16:00,44.8,26.3,30.16,WNW,296,3.0,9.0,48,0.00,,CLR,0.00,VWS V14.00,2013-01-05 20:16:00,
2013-01-05 15:21:00,44.7,26.2,30.17,WNW,299,3.0,9.0,48,0.00,,CLR,0.00,VWS V14.00,2013-01-05 20:21:00,
2013-01-05 15:26:00,44.5,27.0,30.17,SW,214,0.0,9.0,50,0.00,,CLR,0.00,VWS V14.00,2013-01-05 20:26:00,
2013-01-05 15:31:00,44.6,26.6,30.17,WNW,286,0.0,0.0,49,0.00,,CLR,0.00,VWS V14.00,2013-01-05 20:31:00,
2013-01-05 15:36:00,44.3,26.9,30.18,WNW,287,1.0,3.0,50,0.00,,CLR,0.00,VWS V14.00,2013-01-05 20:36:00,
2013-01-05 15:40:00,43.8,26.4,30.18,NW,326,2.0,5.0,50,0.00,,CLR,0.00,VWS V14.00,2013-01-05 20:40:00,
2013-01-05 15:45:00,43.3,25.9,30.18,NNE,21,0.0,5.0,50,0.00,,CLR,0.00,VWS V14.00,2013-01-05 20:45:00,
2013-01-05 15:50:00,43.3,26.4,30.18,NNW,343,0.0,5.0,51,0.00,,CLR,0.00,VWS V14.00,2013-01-05 20:50:00,
2013-01-05 15:55:00,42.8,25.5,30.18,WNW,292,3.0,5.0,50,0.00,,CLR,0.00,VWS V14.00,2013-01-05 20:55:00,
2013-01-05 16:00:00,42.2,25.4,30.17,WNW,296,1.0,2.0,51,0.00,,CLR,0.00,VWS V14.00,2013-01-05 21:00:00,
2013-01-05 16:05:00,41.7,25.4,30.17,NNW,340,2.0,5.0,52,0.00,,CLR,0.00,VWS V14.00,2013-01-05 21:05:00,
2013-01-05 16:10:00,41.4,25.6,30.17,NW,315,2.0,5.0,53,0.00,,CLR,0.00,VWS V14.00,2013-01-05 21:10:00,
2013-01-05 16:15:00,41.1,25.3,30.17,NNW,342,1.0,5.0,53,0.00,,CLR,0.00,VWS V14.00,2013-01-05 21:15:00,
2013-01-05 16:20:00,40.7,25.4,30.18,NNE,13,1.0,5.0,54,0.00,,CLR,0.00,VWS V14.00,2013-01-05 21:20:00,
2013-01-05 16:25:00,40.4,25.5,30.18,WNW,302,0.0,5.0,55,0.00,,CLR,0.00,VWS V14.00,2013-01-05 21:25:00,
2013-01-05 16:30:00,40.0,25.6,30.18,WNW,302,0.0,0.0,56,0.00,,CLR,0.00,VWS V14.00,2013-01-05 21:30:00,
2013-01-05 16:35:00,39.5,26.0,30.18,WNW,302,0.0,0.0,58,0.00,,CLR,0.00,VWS V14.00,2013-01-05 21:35:00,
2013-01-05 16:40:00,39.0,25.5,30.18,WNW,303,0.0,0.0,58,0.00,,CLR,0.00,VWS V14.00,2013-01-05 21:40:00,
2013-01-05 16:45:00,38.5,25.0,30.18,WNW,302,0.0,0.0,58,0.00,,CLR,0.00,VWS V14.00,2013-01-05 21:45:00,
2013-01-05 16:50:00,37.9,24.9,30.18,WNW,303,0.0,0.0,59,0.00,,CLR,0.00,VWS V14.00,2013-01-05 21:50:00,
2013-01-05 16:55:00,37.4,24.8,30.18,WNW,302,0.0,0.0,60,0.00,,CLR,0.00,VWS V14.00,2013-01-05 21:55:00,
2013-01-05 17:00:00,37.0,24.8,30.19,WNW,303,0.0,0.0,61,0.00,,CLR,0.00,VWS V14.00,2013-01-05 22:00:00,
2013-01-05 17:05:00,36.6,24.8,30.19,WNW,303,0.0,0.0,62,0.00,,CLR,0.00,VWS V14.00,2013-01-05 22:05:00,
2013-01-05 17:10:00,36.2,24.8,30.19,WNW,303,0.0,0.0,63,0.00,,CLR,0.00,VWS V14.00,2013-01-05 22:10:00,
2013-01-05 17:15:00,35.6,25.0,30.19,WNW,302,0.0,0.0,65,0.00,,CLR,0.00,VWS V14.00,2013-01-05 22:15:00,
2013-01-05 17:20:00,35.0,24.8,30.19,WNW,302,0.0,0.0,66,0.00,,CLR,0.00,VWS V14.00,2013-01-05 22:20:00,
2013-01-05 17:25:00,34.7,24.9,30.20,WNW,302,0.0,0.0,67,0.00,,CLR,0.00,VWS V14.00,2013-01-05 22:25:00,
2013-01-05 17:30:00,34.6,25.1,30.20,WNW,303,0.0,0.0,68,0.00,,CLR,0.00,VWS V14.00,2013-01-05 22:30:00,
2013-01-05 17:35:00,34.2,24.8,30.20,NW,315,0.0,0.0,68,0.00,,CLR,0.00,VWS V14.00,2013-01-05 22:35:00,
2013-01-05 17:40:00,33.7,24.6,30.20,NNW,336,0.0,0.0,69,0.00,,CLR,0.00,VWS V14.00,2013-01-05 22:40:00,
2013-01-05 17:45:00,33.2,24.5,30.20,NNW,336,0.0,0.0,70,0.00,,CLR,0.00,VWS V14.00,2013-01-05 22:45:00,
2013-01-05 17:50:00,32.8,24.8,30.20,NE,45,0.0,0.0,72,0.00,,CLR,0.00,VWS V14.00,2013-01-05 22:50:00,
2013-01-05 17:55:00,32.3,24.3,30.20,NE,42,0.0,0.0,72,0.00,,CLR,0.00,VWS V14.00,2013-01-05 22:55:00,
2013-01-05 18:00:00,31.9,24.6,30.20,NW,319,0.0,0.0,74,0.00,,CLR,0.00,VWS V14.00,2013-01-05 23:00:00,
2013-01-05 18:05:00,31.6,24.6,30.21,NW,319,0.0,0.0,75,0.00,,CLR,0.00,VWS V14.00,2013-01-05 23:05:00,
2013-01-05 18:10:00,31.5,24.5,30.21,NW,319,0.0,0.0,75,0.00,,CLR,0.00,VWS V14.00,2013-01-05 23:10:00,
2013-01-05 18:15:00,31.3,24.3,30.22,NW,319,0.0,0.0,75,0.00,,CLR,0.00,VWS V14.00,2013-01-05 23:15:00,
2013-01-05 18:20:00,31.0,24.3,30.22,NNE,12,0.0,0.0,76,0.00,,CLR,0.00,VWS V14.00,2013-01-05 23:20:00,
2013-01-05 18:25:00,30.6,24.0,30.22,NNE,12,0.0,0.0,76,0.00,,CLR,0.00,VWS V14.00,2013-01-05 23:25:00,
2013-01-05 18:30:00,30.3,23.7,30.22,NNE,12,0.0,0.0,76,0.00,,CLR,0.00,VWS V14.00,2013-01-05 23:30:00,
2013-01-05 18:35:00,30.3,24.0,30.22,NNE,12,0.0,0.0,77,0.00,,CLR,0.00,VWS V14.00,2013-01-05 23:35:00,
2013-01-05 18:40:00,30.0,23.7,30.22,NNE,24,0.0,0.0,77,0.00,,CLR,0.00,VWS V14.00,2013-01-05 23:40:00,
2013-01-05 18:45:00,29.7,23.7,30.22,NNE,24,0.0,0.0,78,0.00,,CLR,0.00,VWS V14.00,2013-01-05 23:45:00,
2013-01-05 18:50:00,29.8,24.1,30.22,NNE,26,0.0,0.0,79,0.00,,CLR,0.00,VWS V14.00,2013-01-05 23:50:00,
2013-01-05 18:55:00,29.5,23.8,30.22,NNE,26,0.0,0.0,79,0.00,,CLR,0.00,VWS V14.00,2013-01-05 23:55:00,
2013-01-05 19:00:00,29.4,24.0,30.22,NNE,26,0.0,0.0,80,0.00,,CLR,0.00,VWS V14.00,2013-01-06 00:00:00,
2013-01-05 19:05:00,29.2,23.8,30.22,NNE,26,0.0,0.0,80,0.00,,CLR,0.00,VWS V14.00,2013-01-06 00:05:00,
2013-01-05 19:41:00,28.5,24.0,30.22,ESE,119,0.0,0.0,83,0.00,,,0.00,VWS V14.00,2013-01-06 00:41:00,
2013-01-05 19:46:00,28.1,23.6,30.22,NNW,345,0.0,0.0,83,0.00,,,0.00,VWS V14.00,2013-01-06 00:46:00,
2013-01-05 19:51:00,28.4,24.2,30.22,NNW,344,0.0,0.0,84,0.00,,,0.00,VWS V14.00,2013-01-06 00:51:00,
2013-01-05 19:56:00,28.3,23.8,30.21,NNE,26,0.0,0.0,83,0.00,,,0.00,VWS V14.00,2013-01-06 00:56:00,
2013-01-05 20:01:00,28.2,23.7,30.21,East,98,0.0,0.0,83,0.00,,,0.00,VWS V14.00,2013-01-06 01:01:00,
2013-01-05 20:06:00,28.5,24.0,30.21,NNE,23,0.0,0.0,83,0.00,,,0.00,VWS V14.00,2013-01-06 01:06:00,
2013-01-05 20:11:00,28.2,23.7,30.21,NNE,23,0.0,0.0,83,0.00,,,0.00,VWS V14.00,2013-01-06 01:11:00,
2013-01-05 20:16:00,28.0,23.5,30.21,NNE,23,0.0,0.0,83,0.00,,,0.00,VWS V14.00,2013-01-06 01:16:00,
2013-01-05 20:21:00,27.9,23.4,30.22,NNE,23,0.0,0.0,83,0.00,,,0.00,VWS V14.00,2013-01-06 01:21:00,
2013-01-05 20:26:00,28.0,23.5,30.21,NNE,23,0.0,0.0,83,0.00,,,0.00,VWS V14.00,2013-01-06 01:26:00,
2013-01-05 20:31:00,27.8,23.6,30.22,East,95,0.0,0.0,84,0.00,,,0.00,VWS V14.00,2013-01-06 01:31:00,
2013-01-05 20:36:00,27.6,23.1,30.21,East,93,0.0,0.0,83,0.00,,,0.00,VWS V14.00,2013-01-06 01:36:00,
2013-01-05 20:41:00,27.3,23.1,30.21,East,92,0.0,0.0,84,0.00,,,0.00,VWS V14.00,2013-01-06 01:41:00,
2013-01-05 20:46:00,27.2,23.0,30.21,East,92,0.0,0.0,84,0.00,,,0.00,VWS V14.00,2013-01-06 01:46:00,
2013-01-05 20:51:00,27.2,23.3,30.20,East,92,0.0,0.0,85,0.00,,,0.00,VWS V14.00,2013-01-06 01:51:00,
2013-01-05 20:56:00,27.0,23.1,30.21,East,92,0.0,0.0,85,0.00,,,0.00,VWS V14.00,2013-01-06 01:56:00,
2013-01-05 21:01:00,26.9,23.0,30.21,NNE,24,0.0,2.0,85,0.00,,,0.00,VWS V14.00,2013-01-06 02:01:00,
2013-01-05 21:06:00,26.7,22.8,30.21,SSE,159,0.0,2.0,85,0.00,,,0.00,VWS V14.00,2013-01-06 02:06:00,
2013-01-05 21:11:00,26.4,22.5,30.21,SSE,159,0.0,2.0,85,0.00,,,0.00,VWS V14.00,2013-01-06 02:11:00,
2013-01-05 21:16:00,26.4,22.8,30.21,SSE,161,0.0,2.0,86,0.00,,,0.00,VWS V14.00,2013-01-06 02:16:00,
2013-01-05 21:21:00,26.4,23.1,30.21,WNW,282,0.0,2.0,87,0.00,,,0.00,VWS V14.00,2013-01-06 02:21:00,
2013-01-05 21:26:00,26.3,23.0,30.20,West,281,0.0,2.0,87,0.00,,,0.00,VWS V14.00,2013-01-06 02:26:00,
2013-01-05 21:31:00,26.2,22.9,30.20,ESE,107,0.0,0.0,87,0.00,,,0.00,VWS V14.00,2013-01-06 02:31:00,
2013-01-05 21:36:00,26.2,22.9,30.20,NNW,348,0.0,0.0,87,0.00,,,0.00,VWS V14.00,2013-01-06 02:36:00,
2013-01-05 21:41:00,26.0,22.7,30.20,NNW,348,0.0,0.0,87,0.00,,,0.00,VWS V14.00,2013-01-06 02:41:00,
2013-01-05 21:46:00,25.8,22.5,30.21,SE,129,0.0,0.0,87,0.00,,,0.00,VWS V14.00,2013-01-06 02:46:00,
2013-01-05 21:51:00,25.9,22.8,30.20,NNE,17,0.0,3.0,88,0.00,,,0.00,VWS V14.00,2013-01-06 02:51:00,
2013-01-05 21:56:00,25.8,22.7,30.20,North,10,0.0,3.0,88,0.00,,,0.00,VWS V14.00,2013-01-06 02:56:00,
2013-01-05 22:01:00,25.6,22.5,30.20,NW,322,1.0,1.0,88,0.00,,,0.00,VWS V14.00,2013-01-06 03:01:00,
2013-01-05 22:06:00,25.4,22.4,30.21,ESE,107,0.0,2.0,88,0.00,,,0.00,VWS V14.00,2013-01-06 03:06:00,
2013-01-05 22:11:00,25.3,22.2,30.21,ESE,108,0.0,2.0,88,0.00,,,0.00,VWS V14.00,2013-01-06 03:11:00,
2013-01-05 22:16:00,25.2,22.4,30.21,ESE,108,0.0,2.0,89,0.00,,,0.00,VWS V14.00,2013-01-06 03:16:00,
2013-01-05 22:21:00,25.1,22.3,30.20,NW,325,0.0,2.0,89,0.00,,,0.00,VWS V14.00,2013-01-06 03:21:00,
2013-01-05 22:26:00,25.1,22.6,30.20,NW,325,0.0,2.0,90,0.00,,,0.00,VWS V14.00,2013-01-06 03:26:00,
2013-01-05 22:31:00,25.2,22.4,30.20,NW,326,0.0,0.0,89,0.00,,,0.00,VWS V14.00,2013-01-06 03:31:00,
2013-01-05 22:36:00,26.2,23.1,30.20,West,268,0.0,0.0,88,0.00,,,0.00,VWS V14.00,2013-01-06 03:36:00,
2013-01-05 22:41:00,26.2,23.1,30.19,West,268,0.0,0.0,88,0.00,,,0.00,VWS V14.00,2013-01-06 03:41:00,
2013-01-05 22:46:00,26.2,23.1,30.19,West,269,0.0,0.0,88,0.00,,,0.00,VWS V14.00,2013-01-06 03:46:00,
2013-01-05 22:51:00,26.2,23.4,30.18,West,269,0.0,0.0,89,0.00,,,0.00,VWS V14.00,2013-01-06 03:51:00,
2013-01-05 22:56:00,26.3,23.5,30.17,West,269,0.0,1.0,89,0.00,,,0.00,VWS V14.00,2013-01-06 03:56:00,
2013-01-05 23:01:00,26.8,24.3,30.18,West,268,0.0,0.0,90,0.00,,,0.00,VWS V14.00,2013-01-06 04:01:00,
2013-01-05 23:06:00,27.0,24.2,30.18,West,268,0.0,0.0,89,0.00,,,0.00,VWS V14.00,2013-01-06 04:06:00,
2013-01-05 23:10:00,27.0,24.2,30.18,West,268,0.0,0.0,89,0.00,,,0.00,VWS V14.00,2013-01-06 04:10:00,
2013-01-05 23:16:00,27.1,24.3,30.18,West,269,0.0,0.0,89,0.00,,,0.00,VWS V14.00,2013-01-06 04:16:00,
2013-01-05 23:21:00,27.1,24.3,30.18,West,268,0.0,0.0,89,0.00,,,0.00,VWS V14.00,2013-01-06 04:21:00,
2013-01-05 23:26:00,27.2,24.4,30.17,West,269,0.0,0.0,89,0.00,,,0.00,VWS V14.00,2013-01-06 04:26:00,
2013-01-05 23:30:00,27.3,24.5,30.17,West,269,0.0,0.0,89,0.00,,,0.00,VWS V14.00,2013-01-06 04:30:00,
2013-01-05 23:35:00,27.3,24.5,30.17,West,269,0.0,0.0,89,0.00,,,0.00,VWS V14.00,2013-01-06 04:35:00,
2013-01-05 23:40:00,27.4,24.6,30.15,West,269,0.0,0.0,89,0.00,,,0.00,VWS V14.00,2013-01-06 04:40:00,
2013-01-05 23:45:00,27.7,24.9,30.16,West,269,0.0,0.0,89,0.00,,,0.00,VWS V14.00,2013-01-06 04:45:00,
2013-01-05 23:50:00,28.1,25.0,30.16,West,268,0.0,0.0,88,0.00,,,0.00,VWS V14.00,2013-01-06 04:50:00,
2013-01-05 23:55:00,28.1,25.0,30.16,West,269,0.0,0.0,88,0.00,,,0.00,VWS V14.00,2013-01-06 04:55:00,